| time (UTC) | temp C | wind direction | speed KPH | gust KPH | rain 1hr cm | rain 24hr cm | rain mn cm | humidity % | barometer mb |
| 20260507104511 | 11 | 331 | 1.6 | 6.4 | 0.00 | 0.00 | 0.00 | 1 | 1015.3 |
| 20260507103006 | 10 | 336 | 3.2 | 6.4 | 0.00 | 0.00 | 0.00 | 1 | 1015.2 |
| 20260507101502 | 10 | 336 | 3.2 | 4.8 | 0.00 | 0.00 | 0.00 | 1 | 1015.4 |
| 20260507100057 | 10 | 338 | 1.6 | 6.4 | 0.00 | 0.00 | 0.00 | 1 | 1015.4 |
| 20260507094553 | 11 | 351 | 1.6 | 6.4 | 0.00 | 0.00 | 0.00 | 1 | 1015.5 |
| 20260507093052 | 11 | 355 | 0.0 | 3.2 | 0.00 | 0.00 | 0.00 | 1 | 1015.5 |
| 20260507091544 | 11 | 355 | 1.6 | 4.8 | 0.00 | 0.00 | 0.00 | 1 | 1015.5 |
| 20260507090039 | 11 | 344 | 3.2 | 6.4 | 0.00 | 0.00 | 0.00 | 1 | 1015.7 |
| 20260507084537 | 11 | 320 | 3.2 | 4.8 | 0.00 | 0.00 | 0.00 | 1 | 1015.9 |
| 20260507083032 | 11 | 319 | 1.6 | 4.8 | 0.00 | 0.00 | 0.00 | 1 | 1016.2 |
| 20260507081527 | 11 | 319 | 3.2 | 8.0 | 0.00 | 0.00 | 0.00 | 1 | 1016.2 |
| 20260507080024 | 11 | 315 | 3.2 | 6.4 | 0.00 | 0.00 | 0.00 | 1 | 1016.3 |
| 20260507074518 | 11 | 315 | 0.0 | 3.2 | 0.00 | 0.00 | 0.00 | 1 | 1016.4 |
| 20260507073014 | 11 | 303 | 3.2 | 8.0 | 0.00 | 0.00 | 0.00 | 1 | 1016.3 |
| 20260507071510 | 11 | 321 | 1.6 | 8.0 | 0.00 | 0.00 | 0.00 | 1 | 1016.5 |
| 20260507070011 | 11 | 347 | 1.6 | 4.8 | 0.00 | 0.00 | 0.00 | 1 | 1016.5 |
| 20260507064500 | 11 | 317 | 1.6 | 4.8 | 0.00 | 0.00 | 0.00 | 1 | 1016.6 |
| 20260507063057 | 11 | 294 | 1.6 | 4.8 | 0.00 | 0.00 | 0.00 | 1 | 1016.7 |
| 20260507061553 | 12 | 289 | 0.0 | 4.8 | 0.00 | 0.00 | 0.00 | 1 | 1016.6 |
| 20260507060055 | 12 | 275 | 0.0 | 4.8 | 0.00 | 0.00 | 0.00 | 1 | 1016.6 |
| 20260507054548 | 12 | 272 | 0.0 | 3.2 | 0.00 | 0.00 | 0.00 | 1 | 1016.5 |
| 20260507053041 | 12 | 272 | 0.0 | 0.0 | 0.00 | 0.00 | 0.00 | 1 | 1016.6 |
| 20260507051535 | 13 | 272 | 0.0 | 0.0 | 0.00 | 0.00 | 0.00 | 1 | 1016.8 |
| 20260507050030 | 13 | 272 | 0.0 | 0.0 | 0.00 | 0.00 | 0.00 | 1 | 1016.7 |
| 20260507044544 | 13 | 272 | 0.0 | 0.0 | 0.00 | 0.00 | 0.00 | 1 | 1016.4 |
| 20260507043021 | 13 | 272 | 0.0 | 0.0 | 0.00 | 0.00 | 0.00 | 1 | 1016.5 |
| 20260507041517 | 14 | 272 | 0.0 | 1.6 | 0.00 | 0.00 | 0.00 | 1 | 1016.3 |
| 20260507040013 | 15 | 272 | 0.0 | 3.2 | 0.00 | 0.00 | 0.00 | 1 | 1016.2 |
| 20260507034508 | 15 | 267 | 0.0 | 3.2 | 0.00 | 0.00 | 0.00 | 1 | 1016.2 |
| 20260507033004 | 16 | 293 | 0.0 | 3.2 | 0.00 | 0.00 | 0.00 | 1 | 1015.9 |
| 20260507031559 | 16 | 297 | 0.0 | 3.2 | 0.00 | 0.00 | 0.00 | 1 | 1015.8 |
| 20260507024555 | 17 | 310 | 3.2 | 9.7 | 0.00 | 0.00 | 0.00 | 1 | 1015.7 |
| 20260507023045 | 18 | 275 | 3.2 | 14.5 | 0.00 | 0.00 | 0.00 | 1 | 1015.6 |
| 20260507021541 | 18 | 284 | 6.4 | 12.9 | 0.00 | 0.00 | 0.00 | 1 | 1015.5 |
| 20260507020045 | 18 | 269 | 4.8 | 14.5 | 0.00 | 0.00 | 0.00 | 1 | 1015.4 |
| 20260507014535 | 19 | 279 | 6.4 | 16.1 | 0.00 | 0.00 | 0.00 | 1 | 1015.5 |
| 20260507013030 | 20 | 296 | 8.0 | 16.1 | 0.00 | 0.00 | 0.00 | 1 | 1015.2 |
| 20260507011522 | 20 | 326 | 8.0 | 17.7 | 0.00 | 0.00 | 0.00 | 1 | 1015.2 |
| 20260507010025 | 20 | 273 | 8.0 | 16.1 | 0.00 | 0.00 | 0.00 | 1 | 1015.2 |
| 20260507004513 | 21 | 306 | 6.4 | 14.5 | 0.00 | 0.00 | 0.00 | 1 | 1015.2 |
| 20260507003017 | 21 | 304 | 11.3 | 19.3 | 0.00 | 0.00 | 0.00 | 1 | 1015.1 |
| 20260507001510 | 21 | 281 | 6.4 | 16.1 | 0.00 | 0.00 | 0.00 | 1 | 1015.0 |
| 20260507000003 | 21 | 221 | 8.0 | 19.3 | 0.00 | 0.00 | 0.00 | 1 | 1015.0 |
| 20260506234557 | 21 | 311 | 9.7 | 19.3 | 0.00 | 0.00 | 0.00 | 1 | 1014.9 |
| 20260506233053 | 21 | 244 | 9.7 | 17.7 | 0.00 | 0.00 | 0.00 | 1 | 1014.9 |
| 20260506231548 | 21 | 296 | 11.3 | 22.5 | 0.00 | 0.00 | 0.00 | 1 | 1014.9 |
| 20260506230043 | 21 | 288 | 12.9 | 20.9 | 0.00 | 0.00 | 0.00 | 1 | 1014.8 |
| 20260506224549 | 21 | 273 | 9.7 | 19.3 | 0.00 | 0.00 | 0.00 | 1 | 1014.8 |
| 20260506223035 | 21 | 255 | 6.4 | 20.9 | 0.00 | 0.00 | 0.00 | 1 | 1014.8 |
| 20260506221530 | 21 | 317 | 14.5 | 24.1 | 0.00 | 0.00 | 0.00 | 1 | 1014.8 |
| 20260506220029 | 21 | 320 | 12.9 | 22.5 | 0.00 | 0.00 | 0.00 | 1 | 1015.2 |
| 20260506214522 | 21 | 252 | 12.9 | 24.1 | 0.00 | 0.00 | 0.00 | 1 | 1015.3 |
| 20260506213017 | 21 | 308 | 12.9 | 24.1 | 0.00 | 0.00 | 0.00 | 1 | 1015.4 |
| 20260506211513 | 21 | 285 | 11.3 | 22.5 | 0.00 | 0.00 | 0.00 | 1 | 1015.3 |
| 20260506210010 | 22 | 242 | 8.0 | 25.7 | 0.00 | 0.03 | 0.00 | 1 | 1015.4 |
| 20260506204504 | 22 | 277 | 12.9 | 20.9 | 0.00 | 0.03 | 0.00 | 1 | 1015.6 |
| 20260506203059 | 22 | 240 | 9.7 | 19.3 | 0.00 | 0.03 | 0.00 | 1 | 1015.7 |
| 20260506201556 | 22 | 224 | 9.7 | 22.5 | 0.00 | 0.03 | 0.00 | 1 | 1015.6 |
| 20260506200051 | 22 | 222 | 9.7 | 17.7 | 0.00 | 0.03 | 0.00 | 1 | 1015.5 |
| 20260506194558 | 23 | 216 | 12.9 | 22.5 | 0.00 | 0.03 | 0.00 | 1 | 1015.7 |
| 20260506193041 | 22 | 273 | 3.2 | 16.1 | 0.00 | 0.03 | 0.00 | 1 | 1015.7 |
| 20260506191537 | 22 | 350 | 8.0 | 17.7 | 0.00 | 0.03 | 0.00 | 1 | 1016.1 |
| 20260506190033 | 22 | 299 | 4.8 | 16.1 | 0.00 | 0.03 | 0.00 | 1 | 1016.1 |
| 20260506184531 | 21 | 200 | 1.6 | 17.7 | 0.00 | 0.03 | 0.00 | 1 | 1016.3 |
| 20260506183024 | 21 | 340 | 3.2 | 9.7 | 0.00 | 0.03 | 0.00 | 1 | 1016.3 |
| 20260506181519 | 20 | 207 | 6.4 | 12.9 | 0.00 | 0.03 | 0.00 | 1 | 1016.8 |
| 20260506180024 | 20 | 280 | 11.3 | 17.7 | 0.00 | 0.03 | 0.00 | 1 | 1016.9 |
| 20260506174510 | 20 | 329 | 4.8 | 14.5 | 0.00 | 0.03 | 0.00 | 1 | 1017.1 |
| 20260506173005 | 19 | 350 | 6.4 | 19.3 | 0.00 | 0.03 | 0.00 | 1 | 1017.3 |
| 20260506171503 | 19 | 290 | 3.2 | 16.1 | 0.00 | 0.03 | 0.00 | 1 | 1017.3 |
| 20260506164559 | 18 | 324 | 0.0 | 8.0 | 0.00 | 0.05 | 0.00 | 1 | 1017.1 |
| 20260506163049 | 17 | 218 | 0.0 | 14.5 | 0.00 | 0.05 | 0.00 | 1 | 1017.4 |
| 20260506161544 | 16 | 72 | 0.0 | 6.4 | 0.00 | 0.05 | 0.00 | 1 | 1017.4 |
| 20260506160041 | 14 | 119 | 1.6 | 11.3 | 0.00 | 0.05 | 0.00 | 1 | 1017.3 |
| 20260506154534 | 13 | 159 | 0.0 | 1.6 | 0.00 | 0.05 | 0.00 | 1 | 1017.4 |
| 20260506153032 | 12 | 181 | 1.6 | 6.4 | 0.00 | 0.05 | 0.00 | 1 | 1017.5 |
| 20260506151532 | 12 | 196 | 0.0 | 4.8 | 0.00 | 0.05 | 0.00 | 1 | 1017.6 |
| 20260506150021 | 12 | 210 | 0.0 | 3.2 | 0.00 | 0.08 | 0.00 | 1 | 1017.7 |
| 20260506144516 | 11 | 187 | 0.0 | 3.2 | 0.00 | 0.08 | 0.00 | 1 | 1017.6 |
| 20260506143012 | 10 | 132 | 0.0 | 1.6 | 0.00 | 0.08 | 0.00 | 1 | 1017.7 |
| 20260506141507 | 10 | 57 | 0.0 | 3.2 | 0.00 | 0.08 | 0.00 | 1 | 1017.7 |
| 20260506140004 | 10 | 219 | 0.0 | 1.6 | 0.00 | 0.08 | 0.00 | 1 | 1017.6 |
| 20260506134600 | 10 | 209 | 0.0 | 3.2 | 0.00 | 0.08 | 0.00 | 1 | 1017.5 |
| 20260506133102 | 9 | 217 | 0.0 | 1.6 | 0.00 | 0.08 | 0.00 | 1 | 1017.3 |
| 20260506131550 | 8 | 215 | 1.6 | 4.8 | 0.00 | 0.08 | 0.00 | 1 | 1017.2 |
| 20260506130046 | 8 | 326 | 1.6 | 4.8 | 0.00 | 0.10 | 0.00 | 1 | 1017.1 |
| 20260506124541 | 8 | 326 | 0.0 | 3.2 | 0.00 | 0.10 | 0.00 | 1 | 1017.0 |
| 20260506123037 | 8 | 326 | 0.0 | 4.8 | 0.00 | 0.10 | 0.00 | 1 | 1016.7 |
| 20260506121533 | 8 | 331 | 1.6 | 4.8 | 0.00 | 0.10 | 0.00 | 1 | 1016.8 |
| 20260506120037 | 8 | 342 | 3.2 | 6.4 | 0.00 | 0.15 | 0.00 | 1 | 1016.7 |
| 20260506114525 | 8 | 342 | 4.8 | 8.0 | 0.00 | 0.15 | 0.00 | 1 | 1016.8 |
| 20260506113021 | 8 | 339 | 1.6 | 4.8 | 0.00 | 0.15 | 0.00 | 1 | 1016.6 |
| 20260506111516 | 8 | 338 | 1.6 | 4.8 | 0.00 | 0.15 | 0.00 | 1 | 1016.7 |
| 20260506110012 | 8 | 338 | 0.0 | 3.2 | 0.00 | 0.23 | 0.00 | 1 | 1016.5 |